WB0RXX Weather Reports


Display with metric or nautical units.
time (UTC)temp
F
wind
direction
speed
MPH
gust
MPH
rain 1hr
in
rain 24hr
in
rain mn
in
humidity
%
barometer
mb
20260506005004 45 348 6.0 11.0 0.00 0.00 0.00 48 1013.7
20260506004003 46 331 3.0 4.0 0.00 0.00 0.00 48 1013.6
20260506003004 46 346 2.0 5.0 0.00 0.00 0.00 48 1013.4
20260506002003 46 12 2.0 3.0 0.00 0.00 0.00 47 1013.5
20260506001004 46 357 5.0 9.0 0.00 0.00 0.00 46 1013.3
20260506000003 46 348 7.0 10.0 0.00 0.00 0.00 46 1013.2
20260505235004 46 317 3.0 6.0 0.00 0.00 0.00 46 1013.1
20260505234003 46 350 7.0 13.0 0.00 0.00 0.00 46 1013.1
20260505233003 47 309 3.0 5.0 0.00 0.00 0.00 46 1013.0
20260505232004 47 322 6.0 16.0 0.00 0.00 0.00 46 1013.0
20260505231004 47 351 6.0 10.0 0.00 0.00 0.00 45 1012.9
20260505230004 47 333 2.0 3.0 0.00 0.00 0.00 46 1012.8
20260505225004 47 322 7.0 8.0 0.00 0.00 0.00 45 1012.8
20260505224003 47 306 3.0 7.0 0.00 0.00 0.00 45 1012.9
20260505223005 48 340 6.0 9.0 0.00 0.00 0.00 45 1012.8
20260505222003 48 351 5.0 10.0 0.00 0.00 0.00 44 1012.8
20260505221004 48 323 3.0 5.0 0.00 0.00 0.00 44 1012.8
20260505220004 49 314 4.0 7.0 0.00 0.00 0.00 43 1012.6
20260505215005 49 309 1.0 2.0 0.00 0.00 0.00 44 1012.6
20260505214004 49 338 5.0 8.0 0.00 0.00 0.00 42 1012.6
20260505213004 50 304 5.0 9.0 0.00 0.00 0.00 40 1012.5
20260505212004 50 351 4.0 8.0 0.00 0.00 0.00 40 1012.7
20260505211004 50 323 5.0 11.0 0.00 0.00 0.00 41 1012.6
20260505210003 50 326 5.0 9.0 0.00 0.00 0.00 39 1012.6
20260505205003 50 298 4.0 10.0 0.00 0.00 0.00 40 1012.6
20260505204003 50 334 4.0 7.0 0.00 0.00 0.00 41 1012.7
20260505203004 50 312 4.0 7.0 0.00 0.00 0.00 41 1012.8
20260505202004 50 336 5.0 8.0 0.00 0.00 0.00 40 1012.8
20260505201003 50 285 5.0 8.0 0.00 0.00 0.00 40 1012.7
20260505200003 49 288 4.0 8.0 0.00 0.00 0.00 42 1012.7
20260505195003 49 300 4.0 7.0 0.00 0.00 0.00 41 1012.7
20260505194004 49 345 5.0 8.0 0.00 0.00 0.00 40 1012.6
20260505193004 50 314 3.0 8.0 0.00 0.00 0.00 42 1012.7
20260505192004 50 325 2.0 4.0 0.00 0.00 0.00 41 1012.6
20260505191004 49 355 2.0 6.0 0.00 0.00 0.00 42 1012.7
20260505190004 49 330 3.0 4.0 0.00 0.00 0.00 42 1012.7
20260505185004 49 310 7.0 11.0 0.00 0.00 0.00 41 1012.8
20260505184004 49 333 4.0 9.0 0.00 0.00 0.00 42 1012.9
20260505183003 49 305 4.0 11.0 0.00 0.00 0.00 43 1012.7
20260505182019 49 277 4.0 10.0 0.00 0.00 0.00 42 1012.7
20260505181004 49 347 3.0 6.0 0.00 0.00 0.00 43 1012.8
20260505180003 49 321 6.0 7.0 0.00 0.00 0.00 41 1012.6
20260505175003 49 302 3.0 4.0 0.00 0.00 0.00 40 1012.4
20260505174003 49 333 4.0 12.0 0.00 0.00 0.00 40 1012.5
20260505173019 49 320 1.0 5.0 0.00 0.00 0.00 42 1012.6
20260505172004 50 345 6.0 10.0 0.00 0.00 0.00 40 1012.5
20260505171004 48 270 4.0 9.0 0.00 0.00 0.00 42 1012.6
20260505170004 49 312 6.0 11.0 0.00 0.00 0.00 41 1012.5
20260505165004 48 355 3.0 9.0 0.00 0.00 0.00 42 1012.4
20260505164003 49 291 4.0 7.0 0.00 0.00 0.00 43 1012.3
20260505163004 47 281 3.0 4.0 0.00 0.00 0.00 44 1012.4
20260505162004 48 309 5.0 11.0 0.00 0.00 0.00 44 1012.3
20260505161004 48 299 2.0 15.0 0.00 0.00 0.00 45 1012.2
20260505153004 47 338 3.0 6.0 0.00 0.00 0.00 49 1012.2
20260505152003 48 295 3.0 6.0 0.00 0.00 0.00 48 1012.2
20260505151004 46 314 5.0 13.0 0.00 0.00 0.00 48 1012.2
20260505125004 36 313 1.0 4.0 0.00 0.00 0.00 80 1011.2
20260505124004 35 313 0.0 2.0 0.00 0.00 0.00 80 1011.1
20260505123004 35 313 0.0 0.0 0.00 0.00 0.00 81 1011.0
20260505122002 34 313 0.0 0.0 0.00 0.00 0.00 81 1011.0
20260505121003 34 313 0.0 0.0 0.00 0.00 0.00 81 1010.9
20260505120004 33 313 0.0 0.0 0.00 0.00 0.00 81 1010.8
20260505115019 33 313 0.0 0.0 0.00 0.00 0.00 81 1010.8
20260505114004 33 313 0.0 0.0 0.00 0.00 0.00 81 1010.7
20260505113004 33 313 0.0 3.0 0.00 0.00 0.00 81 1010.5
20260505112004 33 313 0.0 0.0 0.00 0.00 0.00 80 1010.5
20260505111003 33 313 0.0 0.0 0.00 0.00 0.00 80 1010.4
20260505102019 34 325 0.0 0.0 0.00 0.00 0.00 80 1010.1
20260505101020 34 325 0.0 0.0 0.00 0.00 0.00 80 1010.1
20260505100019 35 325 0.0 0.0 0.00 0.00 0.00 80 1009.9
20260505095003 35 325 0.0 0.0 0.00 0.00 0.00 80 1010.0
20260505094003 35 325 0.0 0.0 0.00 0.00 0.00 79 1010.0
20260505093004 35 325 0.0 0.0 0.00 0.00 0.00 78 1010.0
20260505092003 35 325 0.0 0.0 0.00 0.00 0.00 77 1010.0
20260505091003 36 325 0.0 0.0 0.00 0.00 0.00 77 1010.0
20260505090005 36 325 0.0 0.0 0.00 0.00 0.00 77 1009.9
20260505085003 36 325 0.0 0.0 0.00 0.00 0.00 76 1009.9
20260505084019 36 325 0.0 0.0 0.00 0.00 0.00 76 1009.8
20260505083003 36 325 0.0 0.0 0.00 0.00 0.00 75 1009.8
20260505082003 36 325 0.0 0.0 0.00 0.00 0.00 75 1009.5
20260505081005 37 325 0.0 0.0 0.00 0.00 0.00 74 1009.5
20260505080003 37 325 0.0 0.0 0.00 0.00 0.00 73 1009.4
20260505075003 37 325 0.0 0.0 0.00 0.00 0.00 73 1009.3
20260505074004 37 325 0.0 0.0 0.00 0.00 0.00 72 1009.2
20260505073003 38 325 0.0 1.0 0.00 0.00 0.00 72 1009.2
20260505072003 38 325 0.0 0.0 0.00 0.00 0.00 71 1009.3
20260505071003 38 325 0.0 0.0 0.00 0.00 0.00 71 1009.3
20260505070004 38 326 1.0 2.0 0.00 0.00 0.00 71 1009.3
20260505065003 38 329 0.0 2.0 0.00 0.00 0.00 70 1009.3
20260505064003 39 329 0.0 0.0 0.00 0.00 0.00 69 1009.3
20260505063004 39 329 0.0 0.0 0.00 0.00 0.00 70 1009.3
20260505062004 39 329 0.0 0.0 0.00 0.00 0.00 69 1009.3
20260505061004 40 329 0.0 0.0 0.00 0.00 0.00 69 1009.2
20260505060003 40 329 0.0 0.0 0.00 0.00 0.00 68 1009.3
20260505055003 40 329 0.0 0.0 0.00 0.00 0.00 67 1009.2
20260505054003 41 329 0.0 0.0 0.00 0.00 0.00 66 1009.2
20260505053004 41 329 0.0 0.0 0.00 0.00 0.00 64 1009.0
20260505052005 42 329 0.0 0.0 0.00 0.00 0.00 63 1008.9
20260505051003 42 329 0.0 0.0 0.00 0.00 0.00 61 1008.9
20260505041004 43 342 0.0 1.0 0.00 0.00 0.00 59 1008.7
20260505040005 44 342 0.0 0.0 0.00 0.00 0.00 58 1008.8
20260505035020 44 342 0.0 0.0 0.00 0.00 0.00 57 1008.7
20260505034003 44 346 0.0 3.0 0.00 0.00 0.00 57 1008.6
20260505033004 44 349 0.0 3.0 0.00 0.00 0.00 56 1008.6
20260505032005 45 340 0.0 0.0 0.00 0.00 0.00 55 1008.6
20260505031002 45 340 0.0 0.0 0.00 0.00 0.00 54 1008.5
20260505030004 46 340 0.0 1.0 0.00 0.00 0.00 53 1008.3
20260505025003 46 340 0.0 0.0 0.00 0.00 0.00 52 1008.2
20260505024003 46 340 0.0 1.0 0.00 0.00 0.00 52 1008.1
20260505023005 47 339 0.0 2.0 0.00 0.00 0.00 50 1008.0
20260505022004 47 339 0.0 0.0 0.00 0.00 0.00 50 1007.9
20260505021002 48 339 1.0 3.0 0.00 0.00 0.00 49 1007.7
20260505020003 48 332 0.0 2.0 0.00 0.00 0.00 48 1007.7
20260505015003 48 5 1.0 3.0 0.00 0.00 0.00 47 1007.6
20260505014003 49 9 3.0 3.0 0.00 0.00 0.00 46 1007.5
20260505013004 49 305 1.0 2.0 0.00 0.00 0.00 46 1007.5
20260505012004 50 328 4.0 7.0 0.00 0.00 0.00 44 1007.3
20260505011002 50 334 2.0 9.0 0.00 0.00 0.00 44 1007.1
20260505010003 50 331 5.0 8.0 0.00 0.00 0.00 43 1007.1